[[{"header":{"parameterUnit":"m.s-1","parameterCategory":1,"la1":30.2991,"la2":30.254,"lo1":-89.0895,"lo2":-89.0444,"dy":0.0017,"dx":0.0017,"nx":28,"ny":28,"refTime":"2024-07-02T03:00:00:Z","depth":0,"parameterNumber":2,"parameterNumberName":"U-component_of_WINDS"},"data":[0,0,0,0,0,0,0,0,0,0,0,0,0,0,0,0,0,0,0,0,0,0,0,0,0,0,0,0,0,0,0,0,0,0,0,0,0,0,0,0,0,0,0,0,0,0,0,0,0,0,0,0,0,0,0,0,0,0,2.3901,2.3902,0,2.396,2.3961,2.3962,2.3921,2.3919,2.3918,2.3916,2.3977,2.3981,2.3984,0,0,0,0,0,0,0,0,0,0,0,0,0,2.3754,2.3757,2.3901,2.3902,2.3903,2.396,2.3961,2.3962,2.3922,2.3919,2.3917,2.3915,2.3976,2.398,2.3984,0,0,0,0,0,0,0,0,0,0,0,0,0,2.3816,2.3758,2.3901,2.389,2.3889,2.396,2.3961,2.3962,2.3922,2.3919,2.3917,2.3914,2.3975,2.398,2.3985,2.4071,0,0,2.4,2.4002,0,0,0,0,0,0,0,0,2.3812,2.3821,2.3891,2.389,2.389,2.3931,2.3931,2.3999,2.3923,2.391,2.3916,2.3913,2.3964,2.397,2.3987,2.4073,2.4076,2.4,2.4003,2.4006,2.4007,0,0,0,0,0,0,0,2.3808,2.3819,2.3925,2.3892,2.3891,2.3881,2.3887,2.3944,2.3952,2.3911,2.3908,2.3915,2.3963,2.3982,2.3988,2.4077,2.4,2.4005,2.4008,2.401,2.4235,2.4237,0,0,0,0,0,0,2.3805,2.3815,2.3923,2.3926,2.3844,2.3886,2.3893,2.392,2.3951,2.3953,2.3918,2.3913,2.3975,2.3982,2.399,2.409,2.4006,2.401,2.4013,2.4232,2.4235,2.4238,0,0,0,0,0,0,2.3802,2.3815,2.392,2.387,2.3883,2.3892,2.3923,2.3923,2.3942,2.3956,2.3957,2.3935,2.3973,2.3983,2.405,2.4091,2.4013,2.4017,2.4228,2.4233,2.4237,2.4292,0,0,0,0,0,0,2.3798,2.3814,2.3846,2.3871,2.3886,2.3979,2.3926,2.3926,2.395,2.3945,2.3973,2.3975,2.3972,2.4043,2.4055,2.4097,2.4021,2.4224,2.423,2.4235,2.4286,2.4298,2.4307,0,0,0,0,0,2.3793,2.386,2.3848,2.3861,2.3926,2.3982,2.399,2.3985,2.3954,2.3986,2.3996,2.3974,2.4086,2.405,2.4064,2.4108,2.4222,2.4229,2.4235,2.4282,2.4295,2.4307,0,0,0,0,0,0,2.384,2.3863,2.385,2.3928,2.3953,2.3975,2.4015,2.4,2.4035,2.4028,2.4021,2.4028,2.4097,2.411,2.407,2.4191,2.4149,2.4159,2.418,2.4193,2.4203,2.4197,2.4025,0,0,0,0,0,2.386,2.3903,2.3921,2.3988,2.4001,2.4007,2.4031,2.4024,2.405,2.4061,2.4075,2.4101,2.4142,2.4169,2.4207,2.4289,2.4293,2.4326,2.4337,2.4345,2.4353,2.4394,2.4408,2.426,2.426,2.426,0,0,2.39,2.3918,2.3946,2.3998,2.4016,2.406,2.4016,2.4065,2.4097,2.4068,2.4131,2.4143,2.4172,2.4246,2.428,2.4259,2.4395,2.4354,2.4361,2.4363,2.4403,2.4417,2.4429,2.4265,2.4264,2.4263,0,0,2.3996,2.4015,2.4071,2.4091,2.4121,2.4124,2.4138,2.4162,2.4168,2.4232,2.421,2.425,2.4321,2.4341,2.4361,2.4466,2.4446,2.4479,2.4532,2.4573,2.4584,2.4595,2.4629,2.4641,2.4487,2.4487,2.4487,0,2.4042,2.4108,2.4103,2.4153,2.4175,2.4152,2.4208,2.4228,2.4269,2.4284,2.4261,2.4348,2.4367,2.4444,2.4469,2.4488,2.4501,2.4473,2.4583,2.4594,2.4603,2.4635,2.4649,2.449,2.449,2.449,2.4489,0,2.4162,2.4208,2.425,2.4289,2.4317,2.437,2.4372,2.4402,2.4394,2.4399,2.4464,2.4485,2.4526,2.4545,2.4538,2.4621,2.4607,2.4584,2.454,2.462,2.4651,2.4663,2.4495,2.4494,2.4493,2.4492,0,0,2.4286,2.4322,2.4337,2.4353,2.4384,2.442,2.4472,2.4512,2.4536,2.4566,2.4608,2.4669,2.4647,2.467,2.4665,2.4702,2.4779,2.4674,2.4674,2.469,2.4869,2.4883,2.4898,2.4769,2.4771,2.4773,2.4865,0,2.438,2.447,2.4467,2.4551,2.4592,2.4571,2.4617,2.464,2.4648,2.4684,2.4693,2.4734,2.4704,2.4717,2.4753,2.4762,2.4815,2.4756,2.4806,2.4807,2.4795,2.4914,2.493,2.5016,2.4878,2.488,2.4881,0,2.4501,2.4534,2.4621,2.4645,2.4662,2.4703,2.4739,2.4774,2.4801,2.4804,2.4829,2.4819,2.4871,2.483,2.4901,2.4861,2.4882,2.489,2.4893,2.4894,2.4846,2.4915,2.5044,2.5055,2.49,2.4899,2.4897,0,2.4578,2.4645,2.4705,2.4721,2.4751,2.4779,2.4793,2.4817,2.4841,2.4874,2.4889,2.4927,2.4947,2.4977,2.4977,2.4947,2.5048,2.5007,2.505,2.505,2.5069,2.5067,2.5199,2.5089,2.5089,2.5089,2.5089,0,2.4681,2.4735,2.474,2.4776,2.4835,2.4833,2.4891,2.4903,2.4924,2.4962,2.4949,2.4985,2.4985,2.5021,2.5023,2.508,2.509,2.5093,2.5091,2.5092,2.5091,2.5102,2.5095,2.5092,2.5091,2.5091,2.509,0,2.4776,2.4781,2.4845,2.4869,2.4876,2.4918,2.4938,2.4973,2.498,2.5028,2.504,2.505,2.5093,2.5097,2.5147,2.5148,2.5216,2.521,2.5206,2.5204,2.5245,2.524,2.5386,2.5404,2.5286,2.5287,2.5288,0,2.4839,2.4879,2.4908,2.4932,2.4947,2.4987,2.5011,2.5011,2.5037,2.507,2.5101,2.5142,2.5174,2.5244,2.5255,2.5293,2.5286,2.5335,2.5292,2.529,2.5283,2.5279,2.5281,2.5342,2.5343,2.5344,2.5345,0,2.4949,2.495,2.4986,2.5022,2.5052,2.5081,2.5108,2.5129,2.5131,2.5161,2.5204,2.523,2.528,2.5321,2.5358,2.5372,2.5359,2.5359,2.5371,2.5369,2.5363,2.5364,2.5225,2.5355,2.5354,2.5353,2.5353,2.5352,2.5027,2.5062,2.5086,2.5126,2.5147,2.5172,2.5205,2.5217,2.5252,2.5293,2.5291,2.5338,2.5364,2.5412,2.543,2.5466,2.545,2.5467,2.5471,2.5474,2.5477,2.5361,2.5474,2.5473,2.5473,2.5473,2.5473,0,2.5134,2.5149,2.5186,2.5224,2.5255,2.5242,2.5271,2.5297,2.5339,2.5364,2.5396,2.5445,2.5485,2.55,2.5539,2.5565,2.5559,2.5575,2.5571,2.5574,2.5491,2.5475,2.5578,2.5578,2.5578,2.5578,2.5578,2.5578,2.5193,2.5249,2.5253,2.5319,2.5335,2.538,2.5398,2.5421,2.5441,2.5496,2.5528,2.5539,2.556,2.5599,2.5635,2.5638,2.5651,2.5669,2.5669,2.5591,2.558,2.5569,2.5555,2.5673,2.5673,2.5749,2.5749,2.575]},{"header":{"parameterUnit":"m.s-1","parameterCategory":1,"la1":30.2991,"la2":30.254,"lo1":-89.0895,"lo2":-89.0444,"dy":0.0017,"dx":0.0017,"nx":28,"ny":28,"refTime":"2024-07-02T03:00:00:Z","depth":0,"parameterNumber":3,"parameterNumberName":"V-component_of_WINDS"},"data":[0,0,0,0,0,0,0,0,0,0,0,0,0,0,0,0,0,0,0,0,0,0,0,0,0,0,0,0,0,0,0,0,0,0,0,0,0,0,0,0,0,0,0,0,0,0,0,0,0,0,0,0,0,0,0,0,0,0,3.4909,3.4909,0,3.495,3.495,3.4951,3.4898,3.4896,3.4894,3.4893,3.4931,3.4934,3.4936,0,0,0,0,0,0,0,0,0,0,0,0,0,3.4778,3.4781,3.4908,3.4909,3.491,3.495,3.495,3.4951,3.4898,3.4896,3.4894,3.4892,3.493,3.4933,3.4937,0,0,0,0,0,0,0,0,0,0,0,0,0,3.4829,3.4782,3.4908,3.4888,3.4887,3.4949,3.495,3.4951,3.4899,3.4896,3.4893,3.4891,3.4929,3.4933,3.4937,3.502,0,0,3.495,3.4952,0,0,0,0,0,0,0,0,3.4826,3.4833,3.4891,3.489,3.4888,3.4916,3.4918,3.4974,3.49,3.4894,3.4893,3.4889,3.4928,3.4932,3.4946,3.5022,3.5024,3.495,3.4953,3.4955,3.4956,0,0,0,0,0,0,0,3.4822,3.4831,3.4925,3.4892,3.489,3.4875,3.4879,3.4928,3.4927,3.4895,3.4891,3.4897,3.4927,3.4942,3.4946,3.5024,3.495,3.4954,3.4957,3.4958,3.5165,3.5167,0,0,0,0,0,0,3.4822,3.4829,3.4923,3.4926,3.485,3.488,3.4884,3.491,3.4926,3.4926,3.4899,3.4894,3.4936,3.4942,3.4948,3.5042,3.4955,3.4959,3.4961,3.5162,3.5165,3.5168,0,0,0,0,0,0,3.4819,3.4831,3.4922,3.4876,3.4887,3.4885,3.4914,3.4912,3.4927,3.4929,3.4928,3.4915,3.4934,3.4942,3.5001,3.5043,3.496,3.4964,3.5158,3.5163,3.5167,3.5234,0,0,0,0,0,0,3.4816,3.483,3.4864,3.4878,3.4889,3.4977,3.4917,3.4915,3.4935,3.4929,3.4944,3.4944,3.4933,3.4996,3.5006,3.5047,3.4968,3.5154,3.516,3.5165,3.5228,3.524,3.525,0,0,0,0,0,3.4811,3.4881,3.4866,3.4877,3.4931,3.498,3.4986,3.4973,3.4939,3.4971,3.4971,3.4944,3.5037,3.5002,3.5013,3.5056,3.5152,3.5159,3.5165,3.5223,3.5238,3.525,0,0,0,0,0,0,3.4872,3.4883,3.4866,3.4943,3.496,3.4971,3.5011,3.4989,3.5017,3.501,3.499,3.4994,3.5057,3.5063,3.5024,3.5135,3.5088,3.5098,3.5129,3.5143,3.5154,3.515,3.4971,0,0,0,0,0,3.4894,3.4934,3.4941,3.5008,3.5018,3.5013,3.5034,3.5021,3.5039,3.5046,3.5051,3.5068,3.51,3.5122,3.5153,3.5229,3.5229,3.5264,3.5275,3.5284,3.5291,3.5328,3.5342,3.519,3.519,3.519,0,0,3.4941,3.4952,3.4978,3.502,3.5033,3.5072,3.502,3.5065,3.5092,3.5052,3.5108,3.5112,3.5129,3.5197,3.5227,3.5203,3.5334,3.5293,3.53,3.5302,3.5336,3.5351,3.5363,3.5195,3.5194,3.5193,0,0,3.5045,3.5059,3.5114,3.5127,3.5146,3.5142,3.5155,3.5168,3.5169,3.5225,3.5195,3.5227,3.5285,3.5297,3.5311,3.5415,3.5389,3.5426,3.5484,3.5519,3.5531,3.5542,3.5576,3.5588,3.5434,3.5434,3.5434,0,3.5099,3.5159,3.5145,3.519,3.5208,3.5173,3.5227,3.524,3.5268,3.528,3.5254,3.5323,3.5333,3.54,3.5425,3.5439,3.545,3.5423,3.5531,3.5541,3.5551,3.5583,3.5596,3.5438,3.5437,3.5437,3.5437,0,3.5223,3.5265,3.5306,3.5334,3.5356,3.5406,3.5396,3.542,3.5405,3.5403,3.5458,3.5468,3.5498,3.5513,3.55,3.5578,3.5562,3.5535,3.5487,3.557,3.5599,3.5611,3.5444,3.5442,3.5441,3.544,0,0,3.5367,3.5384,3.5399,3.5409,3.5427,3.5457,3.5503,3.5533,3.5552,3.5572,3.5608,3.5657,3.5629,3.5645,3.5632,3.5664,3.5741,3.5631,3.5631,3.5648,3.5823,3.5843,3.5857,3.5725,3.5727,3.5729,3.5821,0,3.5468,3.5549,3.5535,3.5613,3.5648,3.5614,3.5654,3.5668,3.5666,3.5694,3.5692,3.5725,3.5689,3.5697,3.5727,3.5726,3.5776,3.5719,3.5755,3.5757,3.575,3.5873,3.5895,3.5981,3.5833,3.5835,3.5836,0,3.5597,3.5621,3.5701,3.5709,3.5724,3.576,3.5783,3.5812,3.5825,3.5821,3.5838,3.5818,3.5861,3.5814,3.5871,3.5833,3.5847,3.5848,3.5851,3.5852,3.58,3.5875,3.6008,3.602,3.5855,3.5853,3.5852,0,3.5689,3.5741,3.5795,3.5805,3.5817,3.5842,3.5848,3.5859,3.5876,3.5896,3.5907,3.5932,3.5946,3.5965,3.5951,3.5919,3.6009,3.5962,3.6005,3.6005,3.6024,3.6022,3.6159,3.6037,3.6037,3.6037,3.6037,0,3.5802,3.5851,3.5836,3.5869,3.5922,3.5905,3.5958,3.596,3.5969,3.5999,3.5972,3.6001,3.5983,3.601,3.6,3.6047,3.6054,3.605,3.6046,3.6051,3.6051,3.6058,3.6051,3.604,3.604,3.6039,3.6038,0,3.5913,3.5906,3.5961,3.5967,3.5969,3.6008,3.6012,3.6041,3.6036,3.6075,3.6083,3.6076,3.6106,3.6095,3.6127,3.612,3.6179,3.6169,3.6174,3.6171,3.6212,3.6208,3.6356,3.6373,3.6244,3.6245,3.6246,0,3.5985,3.6022,3.603,3.6049,3.6056,3.6087,3.6104,3.6088,3.6106,3.6122,3.6149,3.6176,3.6197,3.6246,3.6243,3.6266,3.6255,3.6305,3.6258,3.6261,3.6252,3.6249,3.6251,3.6314,3.6315,3.6317,3.6318,0,3.611,3.6103,3.6129,3.6153,3.6174,3.6192,3.6207,3.6223,3.6207,3.6229,3.6259,3.6275,3.6307,3.6334,3.6354,3.6358,3.6334,3.6333,3.6343,3.6347,3.6348,3.6345,3.6197,3.6329,3.6328,3.6327,3.6326,3.6326,3.6202,3.6231,3.6241,3.627,3.6279,3.6293,3.632,3.6318,3.6343,3.6367,3.6356,3.639,3.6399,3.6424,3.643,3.6455,3.6436,3.6452,3.6455,3.6459,3.6463,3.6346,3.646,3.6459,3.6459,3.6459,3.6458,0,3.6323,3.6327,3.6353,3.6375,3.6396,3.6373,3.6387,3.6406,3.6437,3.6447,3.6468,3.6501,3.6526,3.6524,3.6546,3.6566,3.6556,3.6572,3.6569,3.657,3.6481,3.6468,3.658,3.658,3.658,3.658,3.658,3.658,3.6389,3.6437,3.643,3.6481,3.6485,3.6518,3.6528,3.6539,3.6547,3.6585,3.6605,3.6604,3.6608,3.663,3.6651,3.665,3.6658,3.6678,3.6673,3.6589,3.6577,3.6565,3.6553,3.6681,3.6681,3.6759,3.676,3.6761]}]]